This is the latest recevied weather packets stored in our database for station/object N3EG. If no packets are shown the sender has not sent any weather packets the latest 10 day(s).
| Time | Temp. | Humidity | Pressure | Rain* | Wind** | Luminosity | Snow |
|---|---|---|---|---|---|---|---|
| 1777103402 | 5.56° C | 77% | 1015 hPa | 0 mm | - | - | - |
| 1777103103 | 6.11° C | 77% | 1015 hPa | 0 mm | - | - | - |
| 1777102803 | 6.11° C | 76% | 1015 hPa | 0 mm | - | - | - |
| 1777102502 | 6.11° C | 76% | 1015 hPa | 0 mm | - | - | - |
| 1777102203 | 6.11° C | 75% | 1015.1 hPa | 0 mm | - | - | - |
| 1777101902 | 6.67° C | 74% | 1015.1 hPa | 0 mm | - | - | - |
| 1777101603 | 6.67° C | 73% | 1015 hPa | 0 mm | - | - | - |
| 1777101303 | 6.67° C | 73% | 1014.9 hPa | 0 mm | - | - | - |
| 1777101002 | 6.67° C | 73% | 1015 hPa | 0 mm | - | - | - |
| 1777100703 | 6.67° C | 72% | 1015 hPa | 0 mm | - | - | - |
| 1777100403 | 6.67° C | 71% | 1015 hPa | 0 mm | - | - | - |
| 1777100102 | 6.67° C | 70% | 1015 hPa | 0 mm | - | - | - |
| 1777099803 | 7.22° C | 70% | 1015 hPa | 0 mm | - | - | - |
| 1777099503 | 7.22° C | 69% | 1015 hPa | 0 mm | - | - | - |
| 1777099202 | 7.78° C | 69% | 1015 hPa | 0 mm | - | - | - |
| 1777098903 | 7.78° C | 70% | 1015 hPa | 0 mm | - | - | - |
| 1777098603 | 7.78° C | 68% | 1015.1 hPa | 0 mm | - | - | - |
| 1777098303 | 7.78° C | 68% | 1015.1 hPa | 0 mm | - | - | - |
| 1777098003 | 7.22° C | 69% | 1015.1 hPa | 0 mm | - | - | - |
| 1777097702 | 7.22° C | 70% | 1015.1 hPa | 0 mm | - | - | - |
| 1777097403 | 7.22° C | 70% | 1015.2 hPa | 0 mm | - | - | - |
| 1777097103 | 7.22° C | 72% | 1015.1 hPa | 0 mm | - | - | - |
| 1777096802 | 7.78° C | 72% | 1015.1 hPa | 0 mm | - | - | - |
| 1777096503 | 7.78° C | 69% | 1015.1 hPa | 0 mm | - | - | - |
| 1777096203 | 7.78° C | 69% | 1015.1 hPa | 0 mm | - | - | - |
* Rain latest hour (hover to see other rain measurements)
** Current wind speed in m/s (hover to see current wind gust speed)